When you browse on this site, cookies collect data to enhance your experience and personalize the content and advertising you see.
Visit our Privacy Policy to learn more. By continuing to use the site, you agree to this use of cookies and data.
  • In Deutschland
  • Länderverzeichnis
  • Für 7 Tage
  • Wassertemperatur
  • Satellitenkarten
  • Wetterkarte
  • Widgets
  • user-avatar
    Anmelden

    Stündliche Wetter Puerto Iguazú

    Heute, 18 November, Sonntag

    Zeit Temperatur Niederschläge Wind Luftdruck Luftfeuchtigkeit
    00:00 +28°C° 0.2 mm 2 m/S 741 mmHg 79%
    01:00 +27°C° 0.2 mm 2 m/S 741 mmHg 82%
    02:00 +27°C° 0.2 mm 2 m/S 741 mmHg 84%
    03:00 +26°C° 3.1 mm 2 m/S 741 mmHg 88%
    04:00 +26°C° 3.1 mm 1 m/S 742 mmHg 92%
    05:00 +25°C° 3.1 mm 1 m/S 742 mmHg 96%
    06:00 +25°C° 5.3 mm 1 m/S 742 mmHg 96%
    07:00 +25°C° 5.3 mm 2 m/S 743 mmHg 96%
    08:00 +25°C° 5.3 mm 2 m/S 743 mmHg 96%
    09:00 +24°C° 1.6 mm 2 m/S 744 mmHg 96%
    10:00 +24°C° 1.6 mm 2 m/S 744 mmHg 96%
    11:00 +24°C° 1.6 mm 2 m/S 744 mmHg 96%
    12:00 +25°C° 0.1 mm 2 m/S 744 mmHg 93%
    13:00 +25°C° 0.1 mm 2 m/S 744 mmHg 90%
    14:00 +25°C° 0.1 mm 2 m/S 744 mmHg 86%
    15:00 +26°C° 0 mm 2 m/S 743 mmHg 83%
    16:00 +26°C° 0 mm 2 m/S 743 mmHg 79%
    17:00 +27°C° 0 mm 2 m/S 743 mmHg 75%
    18:00 +26°C° 0 mm 2 m/S 744 mmHg 78%
    19:00 +25°C° 0 mm 2 m/S 744 mmHg 81%
    20:00 +24°C° 0 mm 2 m/S 745 mmHg 85%
    21:00 +23°C° 0 mm 2 m/S 745 mmHg 85%
    22:00 +23°C° 0 mm 2 m/S 745 mmHg 86%
    23:00 +21°C° 0 mm 2 m/S 745 mmHg 87%

    Morgen, 19 November, Montag

    Zeit Temperatur Niederschläge Wind Luftdruck Luftfeuchtigkeit
    00:00 +21°C° 0 mm 2 m/S 745 mmHg 88%
    01:00 +20°C° 0 mm 2 m/S 745 mmHg 88%
    02:00 +20°C° 0 mm 2 m/S 745 mmHg 89%
    03:00 +19°C° 0 mm 2 m/S 745 mmHg 89%
    04:00 +19°C° 0 mm 2 m/S 745 mmHg 89%
    05:00 +19°C° 0 mm 2 m/S 745 mmHg 89%
    06:00 +21°C° 0 mm 2 m/S 745 mmHg 82%
    07:00 +24°C° 0 mm 2 m/S 746 mmHg 74%
    08:00 +26°C° 0 mm 2 m/S 746 mmHg 67%
    09:00 +28°C° 0 mm 1 m/S 746 mmHg 58%
    10:00 +31°C° 0 mm 1 m/S 746 mmHg 50%
    11:00 +34°C° 0 mm 1 m/S 745 mmHg 41%
    12:00 +35°C° 0 mm 1 m/S 745 mmHg 37%
    13:00 +36°C° 0 mm 1 m/S 744 mmHg 34%
    14:00 +37°C° 0 mm 1 m/S 743 mmHg 30%
    15:00 +35°C° 0 mm 1 m/S 743 mmHg 34%
    16:00 +34°C° 0 mm 1 m/S 743 mmHg 39%
    17:00 +32°C° 0 mm 1 m/S 742 mmHg 43%
    18:00 +30°C° 0 mm 1 m/S 743 mmHg 49%
    19:00 +28°C° 0 mm 1 m/S 743 mmHg 55%
    20:00 +25°C° 0 mm 1 m/S 744 mmHg 61%
    21:00 +24°C° 0 mm 1 m/S 744 mmHg 65%
    22:00 +24°C° 0 mm 1 m/S 745 mmHg 69%
    23:00 +23°C° 0 mm 1 m/S 745 mmHg 74%

    übermorgen, 20 November, Dienstag

    Zeit Temperatur Niederschläge Wind Luftdruck Luftfeuchtigkeit
    00:00 +23°C° 0 mm 1 m/S 745 mmHg 76%
    01:00 +23°C° 0 mm 2 m/S 745 mmHg 79%
    02:00 +23°C° 0 mm 2 m/S 745 mmHg 82%
    03:00 +22°C° 0 mm 1 m/S 745 mmHg 84%
    04:00 +22°C° 0 mm 1 m/S 745 mmHg 86%
    05:00 +22°C° 0 mm 1 m/S 745 mmHg 88%
    06:00 +23°C° 0 mm 1 m/S 746 mmHg 77%
    07:00 +25°C° 0 mm 1 m/S 746 mmHg 67%
    08:00 +27°C° 0 mm 2 m/S 747 mmHg 57%
    09:00 +30°C° 0 mm 1 m/S 747 mmHg 51%
    10:00 +32°C° 0 mm 1 m/S 746 mmHg 44%
    11:00 +34°C° 0 mm 1 m/S 746 mmHg 38%
    12:00 +35°C° 0 mm 1 m/S 745 mmHg 35%
    13:00 +36°C° 0 mm 1 m/S 745 mmHg 33%
    14:00 +37°C° 0 mm 1 m/S 744 mmHg 30%
    15:00 +36°C° 0 mm 1 m/S 743 mmHg 34%
    16:00 +35°C° 0 mm 1 m/S 743 mmHg 38%
    17:00 +33°C° 0 mm 1 m/S 743 mmHg 42%
    18:00 +31°C° 0 mm 1 m/S 743 mmHg 48%
    19:00 +27°C° 0 mm 0 m/S 743 mmHg 53%
    20:00 +24°C° 0 mm 0 m/S 744 mmHg 59%
    21:00 +26°C° 0 mm 1 m/S 744 mmHg 61%
    22:00 +25°C° 0 mm 1 m/S 744 mmHg 64%
    23:00 +24°C° 0 mm 1 m/S 745 mmHg 67%

    21 November, Mittwoch

    Zeit Temperatur Niederschläge Wind Luftdruck Luftfeuchtigkeit
    00:00 +24°C° 0 mm 1 m/S 744 mmHg 70%
    01:00 +24°C° 0 mm 1 m/S 744 mmHg 73%
    02:00 +23°C° 0 mm 2 m/S 744 mmHg 76%
    03:00 +23°C° 0 mm 1 m/S 744 mmHg 80%
    04:00 +23°C° 0 mm 1 m/S 745 mmHg 83%
    05:00 +22°C° 0 mm 1 m/S 745 mmHg 86%
    06:00 +24°C° 0 mm 1 m/S 746 mmHg 78%
    07:00 +26°C° 0 mm 2 m/S 746 mmHg 69%
    08:00 +28°C° 0 mm 2 m/S 746 mmHg 60%
    09:00 +30°C° 0 mm 2 m/S 746 mmHg 54%
    10:00 +32°C° 0 mm 2 m/S 746 mmHg 48%
    11:00 +35°C° 0 mm 2 m/S 745 mmHg 42%
    12:00 +35°C° 0 mm 2 m/S 744 mmHg 39%
    13:00 +36°C° 0 mm 2 m/S 744 mmHg 37%
    14:00 +37°C° 0 mm 2 m/S 743 mmHg 34%
    15:00 +36°C° 0 mm 2 m/S 742 mmHg 38%
    16:00 +34°C° 0 mm 1 m/S 742 mmHg 43%
    17:00 +33°C° 0 mm 1 m/S 742 mmHg 47%
    18:00 +31°C° 0 mm 1 m/S 742 mmHg 55%
    19:00 +29°C° 0 mm 2 m/S 742 mmHg 63%
    20:00 +27°C° 0 mm 2 m/S 743 mmHg 71%
    21:00 +27°C° 0 mm 2 m/S 743 mmHg 74%
    22:00 +26°C° 0 mm 2 m/S 743 mmHg 76%
    23:00 +26°C° 0 mm 3 m/S 743 mmHg 79%

    22 November, Donnerstag

    Zeit Temperatur Niederschläge Wind Luftdruck Luftfeuchtigkeit
    00:00 +25°C° 0 mm 2 m/S 743 mmHg 80%
    01:00 +24°C° 0 mm 2 m/S 743 mmHg 82%
    02:00 +23°C° 0 mm 2 m/S 743 mmHg 84%
    03:00 +23°C° 0 mm 1 m/S 743 mmHg 85%
    04:00 +22°C° 0 mm 1 m/S 743 mmHg 87%
    05:00 +22°C° 0 mm 1 m/S 744 mmHg 89%
    06:00 +24°C° 0 mm 1 m/S 744 mmHg 81%
    07:00 +26°C° 0 mm 2 m/S 744 mmHg 74%
    08:00 +28°C° 0 mm 2 m/S 745 mmHg 66%
    09:00 +29°C° 0 mm 2 m/S 744 mmHg 61%
    10:00 +31°C° 0 mm 2 m/S 744 mmHg 57%
    11:00 +32°C° 0 mm 2 m/S 744 mmHg 53%
    12:00 +34°C° 0 mm 2 m/S 743 mmHg 51%
    13:00 +35°C° 0 mm 2 m/S 742 mmHg 48%
    14:00 +35°C° 0 mm 1 m/S 742 mmHg 46%
    15:00 +34°C° 0 mm 1 m/S 742 mmHg 48%
    16:00 +33°C° 0 mm 1 m/S 742 mmHg 51%
    17:00 +33°C° 0 mm 1 m/S 741 mmHg 54%
    18:00 +31°C° 0 mm 1 m/S 742 mmHg 59%
    19:00 +29°C° 0 mm 1 m/S 742 mmHg 64%
    20:00 +27°C° 0 mm 1 m/S 742 mmHg 69%
    21:00 +27°C° 0 mm 1 m/S 742 mmHg 71%
    22:00 +26°C° 0 mm 1 m/S 743 mmHg 74%
    23:00 +26°C° 0 mm 1 m/S 743 mmHg 76%

    23 November, Freitag

    Zeit Temperatur Niederschläge Wind Luftdruck Luftfeuchtigkeit
    00:00 +25°C° 0 mm 1 m/S 742 mmHg 78%
    01:00 +25°C° 0 mm 1 m/S 742 mmHg 80%
    02:00 +25°C° 0 mm 1 m/S 742 mmHg 82%
    03:00 +24°C° 0.1 mm 1 m/S 742 mmHg 85%
    04:00 +24°C° 0.1 mm 1 m/S 742 mmHg 89%
    05:00 +24°C° 0.1 mm 1 m/S 743 mmHg 92%
    06:00 +26°C° 0.1 mm 1 m/S 743 mmHg 84%
    07:00 +28°C° 0.1 mm 1 m/S 744 mmHg 77%
    08:00 +30°C° 0.1 mm 1 m/S 744 mmHg 69%
    09:00 +31°C° 0.3 mm 1 m/S 744 mmHg 64%
    10:00 +32°C° 0.3 mm 1 m/S 743 mmHg 58%
    11:00 +34°C° 0.3 mm 1 m/S 743 mmHg 53%
    12:00 +34°C° 0.6 mm 1 m/S 743 mmHg 51%
    13:00 +35°C° 0.6 mm 1 m/S 742 mmHg 49%
    14:00 +35°C° 0.6 mm 1 m/S 742 mmHg 48%
    15:00 +32°C° 0 mm 0 m/S 742 mmHg 52%
    16:00 +31°C° 0 mm 0 m/S 741 mmHg 56%
    17:00 +30°C° 0 mm 0 m/S 741 mmHg 61%
    18:00 +28°C° 0.1 mm 0 m/S 741 mmHg 67%
    19:00 +29°C° 0.1 mm 1 m/S 742 mmHg 73%
    20:00 +27°C° 0.1 mm 1 m/S 742 mmHg 79%
    21:00 +26°C° 0.1 mm 1 m/S 742 mmHg 81%
    22:00 +26°C° 0.1 mm 1 m/S 742 mmHg 84%
    23:00 +23°C° 0.1 mm 0 m/S 742 mmHg 86%
    Mehr zeigen